Regional Weather Roundup
Issued by NWS Sioux Falls, SD

Home | Current Version | Previous Version | Graphics & Text | Print | Product List | Glossary Off
Versions: 1 2 3 4 5 6 7 8 9 10 11 12 13 14 15 16 17 18 19 20 21 22 23 24 25 26 27 28 29 30 31 32 33 34 35 36 37 38 39 40 41 42 43 44 45 46 47 48 49 50

000
ASUS43 KFSD 261510
RWRFSD

WEATHER ROUNDUP FOR SE SOUTH DAKOTA/SW MINNESOTA/NW IOWA
NATIONAL WEATHER SERVICE SIOUX FALLS SD
1000 AM CDT WED APR 26 2017

NOTE: "FAIR" INDICATES FEW OR NO CLOUDS BELOW 12,000 FEET WITH NO
SIGNIFICANT WEATHER AND OR OBSTRUCTIONS TO VISIBILITY.


SDZ038>040-050-052>070-261600-
SOUTHEAST SOUTH DAKOTA

CITY           SKY/WX    TMP DP  RH WIND       PRES   REMARKS
BROOKINGS      CLOUDY    31  28  89 N17G25    29.66R WCI  19
CHAMBERLAIN    CLOUDY    36  30  79 NW22G29   29.77F
HURON          CLOUDY    33  28  81 N18G29    29.75R WCI  22
MADISON        CLOUDY    32  32 100 N17G25    29.67S WCI  21
MITCHELL       CLOUDY    35  28  75 NW20      29.75S WCI  24
SIOUX FALLS    CLOUDY    35  33  92 NW15      29.66S WCI  25
WINNER         CLOUDY    34  29  82 NW22G30   29.79F WCI  22
YANKTON        CLOUDY    34  28  80 NW20G29   29.70F WCI  22
$$

MNZ071-072-080-081-089-090-097-098-261600-
SOUTHWEST MINNESOTA

CITY           SKY/WX    TMP DP  RH WIND       PRES   REMARKS
FAIRMONT       CLOUDY    37  34  89 NW20G30   29.55R
JACKSON        CLOUDY    36  34  93 NW18G30   29.56S
LUVERNE        CLOUDY    34  32  93 N17G24    29.64S WCI  23
MARSHALL       CLOUDY    34  33  96 N21G28    29.63R WCI  22
MONTEVIDEO     CLOUDY    36  36 100 NE17G23   29.63R
PIPESTONE      CLOUDY    34  30  86 N18G26    29.62S WCI  23
REDWOOD FALLS  CLOUDY    36  33  89 N13G24    29.59S
TRACY          CLOUDY    36  34  95 N16G26    29.61S FOG
WINDOM         MOSUNNY   36  36 100 NW22      29.58R
WORTHINGTON    CLOUDY    35  33  92 N22G28    29.59S WCI  23
$$

IAZ001>003-012>014-020>022-031-032-NEZ013-014-SDZ071-261600-
NORTHWEST IOWA

CITY           SKY/WX    TMP DP  RH WIND       PRES   REMARKS
CHEROKEE       CLOUDY    37  36  94 NW16G23   29.61S
DENISON        CLOUDY    37  36  93 NW10G21   29.64S
ESTHERVILLE    CLOUDY    37  36  96 N20G29    29.55S
LE MARS        CLOUDY    36  34  93 NW20G29   29.65F
ORANGE CITY    CLOUDY    37  36  93 N13G22    29.62S
SHELDON        CLOUDY    36  34  93 NW20G28   29.60F
SIOUX CITY     CLOUDY    37  33  85 NW23G31   29.64F
SPENCER        CLOUDY    38  35  89 NW20G28   29.58F
STORM LAKE       N/A     37  36  93 NW21G30   29.58S
$$

ABBREVIATIONS USED IN REMARKS
   TC - TEMPERATURE IN CELSIUS
  WCI - WIND CHILL INDEX
   HX - HEAT INDEX
  VSB - VISIBILITY




USA.gov is the U.S. government's official web portal to all federal, state and local government web resources and services.